Skip Navigation Links
NOAA logo - Click to go to the NOAA homepage
NOAA's National Weather Service
Alaska Aviation Weather Unit
  NWS logo - Click to go to the NWS homepage
Left Navbar Graphic     09 AKDT = 17 GMT

   
NOAA is celebrating 200 years of science, service, and stewardship. Visit the NOAA 200th celebration Web site to learn more.
USA.gov is the U.S. Government's official Web portal to all Federal, state and local government Web resources and services.
Facebook
NWS on Facebook

Important Change Regarding the AAWU Web Presence

 

Over the last several months, the AAWU has been working to navigate its webpages to a nationally supported server. Security, as well as other needs, have necessitated the change.  In the process, we have made an effort to enhance the functionality of our website, as well as some of our products. As of June 20, 2017, aawu.arh.noaa.gov will be discontinued. The new AAWU web address is weather.gov/aawu. It is now live and will run in-parallel with the old site until it is discontinued. Please send any feedback or questions regarding the new webpages to nws.ar.aawu.webauthors@noaa.gov.  Thank you for your patience during this time of transition.
AAWU Home :: Display TAF Add Bookmark
TAF CYZP 271238Z 2713/2801 29006KT P6SM FEW020
     BECMG 2718/2720 06007KT
    RMK FCST BASED ON AUTO OBS. NXT FCST BY 271900Z=

METAR CYZP 271100Z AUTO 31003KT 260V340 9SM CLR 09/06 A3017 RMK SLP218= METAR CYZP 271200Z AUTO 25003KT 9SM CLR 08/07 A3017 RMK SLP218= METAR CYZP 271300Z AUTO 26008KT 9SM CLR 08/07 A3017 RMK SLP218= METAR CYZP 271400Z AUTO 27008KT 9SM CLR 09/07 A3018 RMK SLP221= METAR CYZP 271500Z AUTO 29004KT 260V330 9SM CLR 10/07 A3018 RMK SLP221= METAR CYZP 271600Z AUTO 28004KT 9SM CLR 11/07 A3018 RMK SLP221= METAR CYZP 271700Z AUTO 02003KT 330V050 9SM CLR 12/06 A3018 RMK SLP222=
 Alaska TAF Map

NOAA's National Weather Service
Alaska Aviation Weather Unit
6930 Sand Lake Road
Anchorage, AK 99502-1845
Disclaimer
Credits
Glossary
Privacy Policy
About Us
Career Opportunities
Contact AAWU Internet Services Site last modified: April, 17th 2012